Weather History for Taunton, MA

Change the Weather History Date:

Wednesday, May 15, 2013

  Actual Average Record
Temperature  
Mean Temperature 48 °F -  
Max Temperature 64 °F 68 °F 84 °F (2004)
Min Temperature 32 °F 42 °F 28 °F (1985)
Degree Days  
Heating Degree Days 17    
Moisture  
Dew Point 39 °F    
Average Humidity 73    
Maximum Humidity 96    
Minimum Humidity 30    
Precipitation  
Precipitation 0.01 in - - ()
Sea Level Pressure  
Sea Level Pressure 29.94 in    
Wind  
Wind Speed 4 mph (SSW)    
Max Wind Speed 15 mph    
Max Gust Speed 25 mph    
Visibility 8 miles    
Events Rain    
Averages and records for this station are not official NWS values.
T = Trace of Precipitation, MM = Missing Value Source: NWS Daily Summary

Daily Weather History Graph

Daily Weather History Graph

Search for Another Location

Airport:

Trip Planner

Search our weather history database for the weather conditions in past years. The results will help you decide how hot, cold, wet, or windy it might be!

Date:

Astronomy

May. 15, 2013 Rise Set
Actual Time 5:23 AM EDT 7:57 PM EDT
Civil Twilight 4:51 AM EDT 8:29 PM EDT
Nautical Twilight 4:12 AM EDT 9:09 PM EDT
Astronomical Twilight 3:27 AM EDT 9:54 PM EDT
Moon 9:57 AM EDT (5/15) No Moon Set
Length of Visible Light 15h 37m
Length of Day
14h 33m
Waxing Crescent, 26% of the Moon is Illuminated
May 15
Waxing Crescent
May 18
First Quarter
May 25
Full
May 31
Last Quarter
Jun 8
New

Hourly Weather History & Observations

Time (EDT) Temp. Dew Point Humidity Pressure Visibility Wind Dir Wind Speed Gust Speed Precip Events Conditions
12:52 AM 37.0 °F 34.0 °F 89% 30.06 in 10.0 mi Calm Calm - N/A   Clear
1:52 AM 35.1 °F 32.0 °F 89% 30.06 in 10.0 mi Calm Calm - N/A   Clear
2:52 AM 37.0 °F 33.1 °F 86% 30.06 in 10.0 mi Calm Calm - N/A   Clear
3:52 AM 34.0 °F 30.9 °F 89% 30.06 in 6.0 mi Calm Calm - N/A   Clear
4:25 AM 33.1 °F 30.9 °F 92% 30.06 in 5.0 mi Calm Calm - N/A   Partly Cloudy
4:52 AM 33.1 °F 30.0 °F 89% 30.06 in 4.0 mi Calm Calm - N/A   Clear
4:57 AM 33.1 °F 30.0 °F 89% 30.06 in 2.5 mi Calm Calm - N/A   Partly Cloudy
5:01 AM 32.0 °F 30.0 °F 92% 30.06 in 1.2 mi Calm Calm - N/A   Partly Cloudy
5:03 AM 32.0 °F 30.0 °F 92% 30.06 in 0.8 mi Calm Calm - N/A   Mist
5:26 AM 32.0 °F 30.0 °F 92% 30.06 in 1.2 mi Calm Calm - N/A   Partly Cloudy
5:29 AM 32.0 °F 30.0 °F 92% 30.06 in 2.0 mi Calm Calm - N/A   Partly Cloudy
5:52 AM 32.0 °F 30.9 °F 96% 30.06 in 3.0 mi Calm Calm - N/A   Clear
6:52 AM 41.0 °F 37.9 °F 89% 30.06 in 8.0 mi Calm Calm - N/A   Clear
7:52 AM 53.1 °F 41.0 °F 64% 30.06 in 10.0 mi Calm Calm - N/A   Clear
8:52 AM 59.0 °F 39.0 °F 48% 30.05 in 10.0 mi Variable 6.9 mph - N/A   Clear
9:52 AM 62.1 °F 34.0 °F 35% 30.02 in 10.0 mi SSW 8.1 mph - N/A   Clear
10:52 AM 63.0 °F 33.1 °F 33% 30.02 in 10.0 mi SSW 10.4 mph 20.7 mph N/A   Scattered Clouds
11:52 AM 63.0 °F 33.1 °F 33% 30.00 in 10.0 mi SW 13.8 mph 21.9 mph N/A   Overcast
12:52 PM 62.1 °F 34.0 °F 35% 29.98 in 10.0 mi SSW 11.5 mph 21.9 mph N/A   Overcast
1:52 PM 64.0 °F 32.0 °F 30% 29.96 in 10.0 mi South 15.0 mph 21.9 mph N/A   Mostly Cloudy
2:52 PM 62.1 °F 37.0 °F 39% 29.92 in 10.0 mi SSW 15.0 mph 24.2 mph N/A   Partly Cloudy
3:52 PM 60.1 °F 44.1 °F 55% 29.90 in 10.0 mi SSW 15.0 mph 24.2 mph N/A   Overcast
4:52 PM 57.9 °F 51.1 °F 78% 29.84 in 10.0 mi South 12.7 mph 25.3 mph 0.00 in Rain Light Rain
5:52 PM 55.9 °F 48.9 °F 77% 29.81 in 10.0 mi South 9.2 mph - 0.01 in   Overcast
6:43 PM 57.0 °F 48.9 °F 74% 29.77 in 10.0 mi SSE 10.4 mph 23.0 mph 0.00 in   Overcast
6:52 PM 57.0 °F 48.9 °F 74% 29.77 in 10.0 mi SSE 9.2 mph 21.9 mph 0.00 in   Overcast
7:52 PM 57.9 °F 48.9 °F 72% 29.75 in 10.0 mi South 15.0 mph 20.7 mph N/A   Overcast
8:52 PM 59.0 °F 51.1 °F 75% 29.73 in 10.0 mi South 9.2 mph - N/A   Overcast
9:52 PM 57.9 °F 53.1 °F 84% 29.72 in 10.0 mi Variable 4.6 mph - N/A   Overcast
10:22 PM 57.9 °F 53.1 °F 84% 29.71 in 10.0 mi SSW 10.4 mph - N/A   Overcast
10:52 PM 57.9 °F 53.1 °F 84% 29.70 in 10.0 mi SSW 9.2 mph 18.4 mph N/A   Overcast
11:39 PM 57.0 °F 53.1 °F 87% 29.70 in 9.0 mi SW 6.9 mph - N/A   Scattered Clouds
11:52 PM 57.0 °F 53.1 °F 87% 29.70 in 8.0 mi SW 4.6 mph - N/A   Partly Cloudy